Regional Weather Roundup
Issued by NWS

Home | Current Version | Previous Version | Text Only | Print | Product List | Glossary Off
Versions: 1 2 3 4 5 6 7 8 9 10 11 12 13 14 15 16 17 18 19 20 21 22 23 24 25 26 27 28 29 30 31 32 33 34 35 36 37 38 39 40 41 42 43 44 45 46 47 48 49 50

000
ASUS44 KMEG 091600
RWRTN
TENNESSEE HOURLY STATE WEATHER ROUNDUP
NATIONAL WEATHER SERVICE MEMPHIS TN
1000 AM CST FRI DEC 09 2016

TNZ002-004-019-021-049-052-054-088>092-091700-
WEST TENNESSEE

CITY           SKY/WX    TMP DP  RH WIND       PRES   REMARKS
MEMPHIS INTL   MOSUNNY   31  15  52 VRB6      30.67S WCI  25
NWS MEMPHIS      N/A     28 N/A N/A MISG        N/A
JACKSON        SUNNY     29  17  61 N5        30.68R WCI  24
DYERSBURG      SUNNY     28  18  64 NE8       30.67F WCI  20
UNION CITY     SUNNY     25  18  74 CALM      30.66F
PARIS          SUNNY     25  16  68 CALM      30.65R
LEXINGTON      MOSUNNY   27  16  63 N7        30.64R WCI  19
$$

TNZ008-025-027-028-033-062-065-066-091700-
NORTH MIDDLE TENNESSEE

CITY           SKY/WX    TMP DP  RH WIND       PRES   REMARKS
NASHVILLE      MOSUNNY   30  15  53 NE5       30.63R WCI  25
CLARKSVILLE    MOSUNNY   28  16  60 VRB3      30.63S
SMYRNA         MOSUNNY   28  17  63 NW7       30.63S WCI  21
CROSSVILLE     SUNNY     23  14  68 VRB7      30.50S WCI  15
$$

TNZ061-075-076-078-094-096-097-091700-
SOUTH MIDDLE TENNESSEE

CITY           SKY/WX    TMP DP  RH WIND       PRES   REMARKS
TULLAHOMA        N/A     27  14  59 NE7       30.57S WCI  19
WINCHESTER     SUNNY     27  16  63 NE8       30.57S WCI  18
MCMINNVILLE    CLOUDY    27  18  69 VRB3        N/A
SHELBYVILLE    MOSUNNY   28  18  64 N9        30.60S WCI  20
$$

TNZ017-018-042-046-047-091700-
NORTHEAST TENNESSEE

CITY           SKY/WX    TMP DP  RH WIND       PRES   REMARKS
TRI CITIES     CLOUDY    27  13  55 W9        30.49R WCI  18
$$

TNZ012-013-036-069-073-074-091700-
CENTRAL EAST TENNESSEE

CITY           SKY/WX    TMP DP  RH WIND       PRES   REMARKS
KNOXVILLE      PTSUNNY   29  15  56 NE8       30.54R WCI  21
OAK RIDGE      PTSUNNY   30  13  49 VRB5      30.56S WCI  25
GATLINBURG     CLOUDY    27  14  59 CALM      30.53S
$$

TNZ083-085-099-091700-
SOUTHEAST TENNESSEE

CITY           SKY/WX    TMP DP  RH WIND       PRES   REMARKS
CHATTANOOGA    MOSUNNY   32  17  54 N5        30.57S WCI  27
$$

SKY/WX REPORTED AS FAIR MEANS FEW OR NO CLOUDS BELOW
12 THOUSAND FEET.





USA.gov is the U.S. government's official web portal to all federal, state and local government web resources and services.